sat.trackr.live / text

‹ back to catalog

STARLINK-30518

NORAD 58029 · 2023-156B

PAYLOAD ACTIVE UNKNOWN

§ Identity

Operator
Country
US
Launch date
2023-10-09
Launch site
AFWTR
Launch vehicle
Mass (kg)
RCS (m²)

Purposes: comms

External: N2YO · Heavens-Above · Gunter

§ Orbital elements

Epoch: 2026-05-25T03:33:58.589856Z

Period
94.11 min
Inclination
53.1615°
Eccentricity
0.0001422
Mean motion
15.30202110 rev/d
Perigee alt
474.2 km
Apogee alt
476.2 km
Semi-major
6,853.3 km
B*
1.0684e-4
RAAN
83.1363°
Arg perigee
80.8135°
Mean anomaly
279.3027°
Rev number
14,802

§ Raw data

STARLINK-305181 58029U 23156B   26145.14859479  .00002806  00000+0  10684-3 0  99932 58029  53.1615  83.1363 0001422  80.8135 279.3027 15.30202110148025

JSON: /api/v1/satellites/58029 · /tle

For live sub-satellite position, see the globe view (requires WebGL).

§ Visibility from observer

Set your observer location to see the next 7 days of passes ≥ 10°. The values pass through the URL so the page stays shareable.

No JS? Fill the form by hand. The geolocation button needs JavaScript.